Location: Newark
(55.7083°N, 13.1992°E)
Time: 22:58:00
(UTC+00:00)

Envisat - Pass Details

Date: 04 October 2022
Orbit: 763 x 765 km, 98.2° (Epoch: 09 December)

Event Time Altitude Azimuth Distance (km) Brightness Sun altitude
Rises 03:17:30 0° 17° (NNE) 3,249 6.8 -17.2°
Reaches altitude 10° 03:19:53 10° 23° (NNE) 2,318 6.0 -16.9°
Maximum altitude 03:24:53 53° 100° (E) 938 3.8 -16.2°
Drops below altitude 10° 03:29:51 10° 178° (S) 2,301 5.3 -15.6°
Sets 03:32:12 0° 183° (S) 3,223 6.1 -15.3°
